Wind_Speed
7 7 6 5 3 4 6 7 7 7 7 6 5 4 4 5 5 5 4 2 2 4 7 8 9 6 6 7 1 3 11 13 8 4 2 2 4 6 6 5 6 7 6 5 4 3 3 4 4 3 3 2 1 1 1 2 1 3 4 5 4 3 2 3 5 3 2 6 11 14 17 13 10 12 10 9 13 15 12 14 15 16 19 19 14 14 14 13
7 6 5 4 4 5 7 8 7 7 6 5 5 3 2 2 4 4 5 5 6 9 10 11 10 8 7 6 2 4 9 11 6 7 4 2 4 6 4 3 3 3 3 2 3 5 5 5 4 4 4 3 1 1 0 2 2 3 3 5 2 2 2 2 1 3 2 3 10 13 15 14 9 10 11 9 12 15 15 16 17 19 20 20 19 21 22 19
6 5 5 4 5 6 8 8 7 7 6 5 3 1 0 2 3 5 6 7 10 11 11 10 10 9 8 4 4 6 7 6 5 10 6 1 5 6 5 4 3 2 1 1 3 6 6 4 3 4 5 3 1 1 1 3 2 1 3 5 1 4 4 4 3 4 3 1 9 13 13 13 9 7 10 9 12 13 15 16 16 20 23 22 21 22 25 25
6 5 4 5 6 7 8 8 7 6 5 3 2 1 2 3 4 5 7 8 9 9 9 10 10 9 3 5 7 8 7 4 4 10 6 2 5 6 5 4 3 2 1 0 1 4 6 4 3 3 5 3 0 1 2 4 2 2 3 3 4 2 2 4 4 5 3 3 6 11 10 12 9 6 9 9 10 11 15 19 19 20 20 19 19 20 23 26
5 5 6 6 7 8 9 8 7 5 4 3 1 2 3 3 4 5 6 6 6 6 7 8 8 3 6 10 9 6 1 2 5 9 3 3 5 5 5 4 2 1 1 1 2 2 4 3 3 3 4 3 1 1 2 4 2 1 1 2 4 2 2 4 3 4 2 3 4 10 9 10 9 8 12 12 11 9 9 14 18 20 18 16 16 17 21 24
7 8 8 9 10 9 9 8 6 5 4 2 2 3 4 4 4 5 4 4 3 2 4 5 7 10 12 11 8 7 3 1 7 8 3 3 4 5 4 3 2 1 1 2 2 4 3 4 5 3 3 2 2 2 3 3 3 2 1 1 3 4 4 4 3 3 1 3 6 8 7 8 8 10 13 17 20 17 11 7 10 15 15 15 14 15 19 23
10 10 11 10 10 9 9 7 6 4 3 2 3 4 5 5 5 4 2 0 2 2 4 7 10 13 12 11 11 10 8 6 8 6 5 4 4 4 3 3 3 2 2 2 4 5 4 5 6 3 2 1 2 2 3 3 3 2 2 3 2 4 3 3 2 1 2 4 6 4 5 8 11 11 11 18 25 26 23 17 14 16 17 17 17 17 18 22
11 11 10 10 9 9 8 7 5 3 2 3 5 8 9 10 10 8 4 4 6 5 7 11 14 14 14 13 10 10 11 9 7 6 6 4 4 4 3 3 3 4 4 3 4 4 4 5 4 3 1 1 2 2 2 2 2 2 2 3 2 3 2 2 1 2 3 4 3 3 7 11 13 11 13 21 25 25 26 24 21 22 23 23 24 22 20 22
10 10 9 8 8 8 7 6 4 3 4 6 9 11 12 12 11 11 7 3 6 7 8 11 12 12 11 8 4 6 10 9 6 6 6 4 4 4 4 4 4 6 5 5 4 2 4 4 3 3 1 3 2 2 3 3 1 3 4 3 2 2 1 2 2 3 4 4 4 7 11 13 13 9 16 25 27 26 24 24 23 22 23 25 27 27 25 24
9 7 7 7 8 7 6 3 2 4 6 9 11 11 11 10 10 12 9 3 7 6 6 8 8 7 6 3 2 4 8 8 8 6 4 5 5 5 4 3 5 6 6 6 5 3 2 2 3 2 3 5 3 2 4 3 2 5 6 4 3 3 3 3 4 5 4 5 6 9 11 13 9 4 12 18 15 16 17 18 20 19 21 23 24 27 27 26
6 6 6 6 6 5 3 2 3 7 9 10 10 10 9 8 8 11 9 8 8 5 6 6 7 9 7 7 10 7 7 10 10 7 5 6 4 4 3 3 5 5 4 4 2 3 1 3 6 4 2 4 4 5 4 3 4 7 7 4 3 3 4 5 6 6 6 5 6 9 11 16 10 6 19 21 10 9 10 13 15 16 19 20 20 22 23 25
5 4 4 4 4 3 2 4 7 10 11 9 8 8 7 6 5 8 11 15 13 12 13 11 12 14 12 14 16 10 10 11 9 9 7 6 3 3 3 4 5 3 3 3 1 2 3 7 7 3 3 4 3 4 5 5 4 6 4 2 4 5 6 9 8 6 7 4 4 6 10 14 13 16 29 27 16 12 11 14 15 16 18 18 18 19 20 22
3 3 3 3 4 3 3 7 10 11 9 7 6 6 5 4 3 4 9 14 14 14 13 11 12 11 10 13 13 10 11 12 10 9 9 9 7 5 5 4 3 2 3 2 3 3 3 6 6 5 8 5 2 4 6 5 3 4 5 4 4 6 6 10 8 6 7 3 2 3 8 9 9 20 26 17 13 14 13 16 16 17 17 17 17 17 19 21
5 4 4 4 4 5 7 10 11 10 7 5 4 4 3 3 5 6 7 8 7 8 8 7 7 7 9 10 8 10 11 10 11 8 9 11 9 8 10 9 8 8 7 7 8 8 7 6 5 8 9 7 7 8 6 4 3 3 2 3 4 5 2 9 8 6 6 3 3 3 6 9 10 11 12 7 10 13 14 16 16 16 16 16 16 17 19 21
7 6 5 5 6 7 9 11 11 8 5 3 2 3 4 5 6 8 8 8 8 8 7 6 6 6 10 10 6 8 10 9 8 6 9 11 6 5 8 10 10 10 8 8 9 10 12 11 8 8 9 9 9 7 3 4 5 3 2 2 3 3 1 7 7 6 5 1 5 5 6 9 12 7 5 7 8 11 15 18 17 17 17 16 17 17 19 20
7 7 6 7 7 8 10 11 10 6 3 2 2 5 6 6 7 9 10 9 9 10 9 9 9 7 7 8 6 5 6 6 5 5 6 7 7 5 6 7 7 7 7 7 7 8 9 9 9 8 7 5 3 3 3 4 4 4 3 5 3 4 5 2 5 5 4 2 6 9 7 9 11 7 3 5 8 10 14 18 18 19 18 17 18 18 19 20
6 6 6 7 8 9 10 10 9 6 3 3 5 7 8 7 8 9 9 10 11 11 10 9 8 8 7 6 4 4 4 3 4 4 3 3 5 4 3 3 3 3 4 5 5 3 4 4 5 5 3 1 1 3 4 3 2 1 1 5 4 4 7 5 2 3 4 4 7 10 11 14 15 16 17 15 12 13 15 18 21 21 20 20 19 19 19 20
5 5 7 8 10 10 9 9 7 5 5 6 7 9 9 8 6 6 5 5 3 4 3 5 4 3 7 7 5 5 4 2 3 3 2 2 2 2 3 4 4 3 3 2 1 0 1 2 4 2 1 2 4 3 3 2 2 3 4 5 5 5 7 9 3 2 4 6 9 10 12 18 20 20 25 24 19 18 19 20 21 22 23 22 20 20 19 19
5 7 8 10 11 10 9 8 5 6 7 8 9 10 8 9 9 8 8 5 2 3 2 8 9 3 6 7 6 6 6 4 4 4 2 1 1 4 4 3 3 4 6 4 2 3 1 2 3 0 3 4 5 4 3 3 3 4 5 5 7 8 8 10 4 3 1 6 10 12 13 18 20 18 21 24 23 22 22 21 20 20 20 20 19 19 18 19
7 9 9 11 11 10 9 6 6 10 10 11 12 9 8 10 10 12 19 21 17 13 8 9 12 9 7 5 6 5 7 8 8 8 6 4 3 4 4 3 3 2 2 2 2 1 2 1 2 2 4 4 3 3 3 2 2 4 5 6 8 9 9 10 5 4 2 5 9 12 14 18 20 19 20 24 24 21 21 21 20 20 19 19 19 18 18 20
8 10 10 11 11 10 8 8 12 14 15 16 10 5 6 6 6 10 16 21 20 18 16 14 13 11 9 7 6 5 5 5 8 10 6 3 5 4 3 3 3 2 3 3 3 2 1 2 3 2 2 2 2 2 3 3 3 5 5 7 8 7 8 10 4 3 1 3 8 11 14 19 19 18 21 23 20 19 20 20 20 21 20 19 18 17 19 20
10 11 12 12 12 11 11 14 16 15 16 13 5 4 11 12 14 16 14 12 14 17 18 16 14 11 11 10 8 7 4 3 8 12 9 6 4 2 3 3 2 2 1 3 4 2 1 3 2 1 0 1 2 2 3 4 5 5 5 7 7 5 6 7 1 3 1 3 8 11 12 18 20 19 21 20 17 17 19 18 19 19 17 17 16 15 17 18
11 12 13 13 13 13 15 17 12 9 12 9 8 15 19 17 16 15 12 8 8 13 14 14 16 14 11 11 9 8 7 5 7 11 12 9 7 6 6 5 5 3 3 5 4 1 1 3 3 2 1 2 2 2 4 5 5 6 6 6 6 6 7 5 1 0 5 6 9 12 9 14 19 16 15 12 10 11 12 12 13 13 13 14 13 13 16 17
12 14 15 14 14 15 17 16 6 5 11 12 14 17 13 10 7 6 4 3 5 8 9 12 16 16 13 10 9 8 8 9 8 12 15 12 7 6 6 5 4 3 4 7 6 3 3 4 3 2 1 3 4 4 4 5 5 6 6 5 7 8 9 9 7 9 11 6 5 9 9 9 9 7 6 3 3 5 6 8 10 12 15 16 14 15 18 20
13 15 16 15 15 16 17 14 7 10 16 15 16 14 9 8 9 8 3 2 3 5 7 7 9 14 14 12 11 5 3 8 10 13 16 15 12 5 3 4 4 2 2 6 5 2 3 3 2 0 3 4 5 6 3 2 7 4 1 4 7 9 10 12 12 11 9 3 2 4 8 6 3 6 10 4 2 4 4 5 8 10 12 12 12 13 14 15
14 17 18 17 16 17 16 11 11 16 15 11 11 7 4 8 13 12 4 3 3 5 6 6 5 10 13 13 13 4 2 4 9 14 16 14 13 6 1 3 2 2 2 4 3 0 2 3 2 2 4 6 7 6 1 1 7 5 2 4 7 8 10 11 10 7 6 6 2 1 4 8 7 9 10 4 4 6 4 6 6 6 7 8 6 7 10 11
16 18 18 17 17 17 13 10 15 16 7 3 4 4 10 12 13 12 4 3 4 4 5 7 5 8 11 12 14 3 1 6 6 12 17 12 11 7 2 3 1 3 3 3 2 1 2 2 3 2 3 6 6 4 1 2 6 4 2 5 8 9 10 9 7 5 6 9 7 5 6 7 8 7 3 1 4 7 4 4 3 4 5 4 2 6 9 11
18 19 19 17 17 17 11 9 16 16 7 3 4 9 11 12 12 10 3 2 4 4 4 6 4 9 10 8 15 9 4 10 4 8 17 12 10 6 1 3 3 2 2 3 3 2 0 0 1 2 4 4 2 2 3 3 5 3 2 5 8 9 10 7 6 7 6 7 7 5 6 6 7 6 1 2 3 5 3 4 2 3 4 2 3 7 10 11
18 20 20 17 18 17 10 9 13 13 9 7 9 10 10 12 10 6 2 2 4 3 4 6 5 11 12 5 11 13 9 10 6 8 13 11 11 7 1 2 2 2 1 2 3 2 1 1 1 1 3 2 2 2 1 4 6 3 5 7 8 8 8 6 5 6 4 6 7 3 5 5 7 8 6 2 2 3 3 4 5 5 5 4 4 7 9 12
19 19 20 18 19 17 12 9 9 10 9 10 10 9 11 11 6 3 1 2 3 3 5 7 6 11 15 5 5 12 8 7 9 10 9 9 10 8 2 2 2 2 2 4 4 1 2 1 1 1 3 2 4 5 4 6 7 6 7 10 9 7 6 5 5 4 4 5 2 3 4 3 6 7 8 4 0 1 3 6 8 7 7 7 7 8 8 10
19 18 19 18 18 17 13 7 6 7 8 9 7 8 11 7 2 0 4 2 2 4 5 5 5 8 12 4 2 9 6 4 10 10 7 6 7 9 5 2 2 3 2 1 2 3 4 2 2 1 1 1 4 5 4 4 4 3 6 8 8 5 4 4 3 4 5 4 3 4 1 4 6 6 7 7 2 2 3 6 7 8 8 9 9 10 11 12
18 18 18 17 17 15 11 6 6 6 7 8 7 8 7 2 2 3 3 3 3 4 4 2 5 6 6 3 3 7 4 3 7 5 4 4 4 8 7 5 4 3 3 5 4 2 2 2 2 2 1 0 4 5 1 4 3 3 6 7 8 6 3 4 4 3 5 3 4 3 3 4 9 10 12 13 11 8 6 5 7 9 9 9 12 15 19 20
15 16 17 16 15 14 11 8 6 7 8 7 5 5 4 0 5 3 2 4 2 2 2 2 5 7 6 4 4 6 3 1 5 3 1 2 1 3 4 5 6 4 4 6 7 7 2 3 2 2 2 1 3 6 4 1 3 5 6 6 6 6 7 7 6 6 7 3 2 3 3 6 9 8 9 12 14 13 11 8 8 9 9 10 14 16 19 20
13 13 13 13 13 11 11 9 8 9 7 5 4 3 1 4 4 1 2 4 2 2 3 2 5 6 3 2 4 5 2 1 5 4 2 2 2 3 3 7 9 4 4 5 4 4 4 1 1 0 1 2 2 3 4 5 7 5 3 4 5 5 6 7 7 8 9 9 6 1 1 6 7 7 10 13 13 12 12 9 6 6 7 10 12 11 14 18
11 12 11 10 10 9 9 8 7 6 3 3 3 2 4 5 3 1 2 2 2 4 3 1 4 4 1 2 2 3 2 2 4 4 4 4 4 5 3 5 9 7 4 5 3 2 6 3 2 2 1 1 2 2 2 5 5 1 1 3 3 3 4 6 10 9 7 8 7 3 3 5 8 12 12 9 8 11 14 13 9 9 10 10 12 13 17 19
9 10 9 7 6 5 3 2 3 1 3 4 2 5 4 2 2 3 3 3 3 5 6 3 3 4 4 2 2 4 2 0 4 4 3 3 2 4 3 2 6 6 4 5 3 2 6 4 1 1 1 1 1 1 1 3 3 2 2 3 2 2 3 6 9 7 4 7 7 6 7 7 10 11 6 3 7 14 18 15 13 17 19 16 16 20 21 22
7 8 8 6 5 4 3 2 1 1 5 5 4 6 2 0 3 4 5 5 3 4 5 2 3 4 5 4 4 6 5 2 4 5 2 2 1 3 3 2 2 4 4 3 2 2 3 8 6 3 2 1 2 2 2 2 2 3 3 5 4 3 3 3 6 5 6 8 7 8 11 11 11 8 5 7 12 17 19 17 15 18 20 19 20 23 23 24
12 13 12 10 7 5 4 6 6 7 11 10 7 5 2 1 4 3 4 5 3 3 3 4 3 2 4 5 4 6 7 5 6 6 4 3 2 2 3 2 3 2 3 2 3 2 2 7 4 1 3 1 4 3 2 4 3 3 3 4 4 2 2 4 5 6 8 9 8 9 10 10 11 8 7 11 17 21 22 18 16 16 17 18 20 22 24 26
14 14 13 9 7 7 5 5 6 7 8 7 4 4 3 3 3 3 5 4 3 3 3 4 3 1 2 5 4 3 4 4 6 5 3 3 3 2 2 3 1 1 2 3 3 2 2 4 2 0 3 2 3 3 2 0 2 2 2 1 1 1 4 4 5 5 7 9 9 9 8 8 10 10 10 14 20 22 20 18 16 15 17 19 20 22 25 28
7 9 10 9 10 11 8 11 14 11 7 5 5 3 2 2 2 3 6 4 2 3 3 2 3 3 2 2 1 2 3 3 4 4 3 3 3 3 5 3 3 2 2 3 3 3 3 4 4 4 3 4 2 1 3 4 1 1 2 2 1 2 3 3 5 4 4 8 8 8 8 8 10 12 15 19 21 19 19 18 15 15 19 20 21 25 29 30
7 7 7 9 12 12 14 19 18 11 4 4 5 3 2 2 1 3 6 5 3 3 3 2 3 3 3 3 2 2 4 3 3 3 2 3 2 2 4 3 4 5 4 3 2 2 2 3 7 7 6 7 5 4 5 5 2 2 3 4 5 5 3 5 6 2 1 5 6 8 10 10 12 13 15 18 17 16 19 20 16 17 21 21 24 29 29 27
12 7 5 9 11 11 17 17 10 6 4 5 4 3 3 2 2 2 5 5 2 2 2 2 3 3 3 3 3 3 4 3 3 3 2 2 2 2 3 4 4 4 4 3 1 2 2 3 7 7 9 9 3 7 7 5 1 3 4 4 5 4 4 6 7 5 4 5 4 5 10 11 12 13 14 15 16 17 23 24 19 19 22 23 27 31 27 26
17 10 7 8 9 12 16 11 5 6 6 3 2 4 4 3 3 3 4 5 3 2 2 2 2 3 3 2 3 3 4 2 2 3 4 3 1 1 3 5 5 3 3 2 1 3 1 3 5 7 9 7 2 7 6 3 1 3 5 6 5 3 3 4 5 5 6 9 8 6 10 11 11 12 14 18 21 21 24 27 21 18 21 25 28 28 26 27
25 22 18 9 2 7 10 5 3 6 3 2 4 4 4 5 6 5 4 5 4 3 3 2 2 3 2 2 2 2 4 2 1 1 2 2 1 1 3 4 3 4 4 2 3 5 2 3 5 8 8 6 3 2 2 1 2 4 6 6 4 2 2 1 2 2 3 11 12 9 10 11 11 13 16 20 22 20 22 26 22 18 21 24 26 26 26 28
19 20 25 21 15 16 14 8 6 6 4 4 4 3 3 4 6 6 4 4 5 3 2 2 1 2 2 1 2 2 2 2 1 1 1 2 2 1 3 3 1 2 4 2 2 4 3 4 5 6 7 8 8 7 7 7 6 7 11 10 4 4 4 2 4 4 5 10 13 10 10 13 16 18 19 21 20 19 21 25 24 22 22 23 24 25 25 28
8 7 12 19 25 26 20 14 10 6 2 3 3 4 5 3 3 6 4 3 5 4 2 2 2 3 2 2 3 3 1 2 1 2 3 4 2 1 2 4 2 0 3 2 1 1 3 5 5 6 7 8 9 11 11 12 11 11 16 18 10 4 7 5 4 5 7 8 11 12 12 15 19 21 21 20 20 19 19 20 23 23 23 24 25 24 24 27
8 4 2 6 14 17 16 15 12 6 2 2 2 3 6 4 2 3 3 3 4 3 1 1 2 2 3 4 4 3 3 3 2 1 3 3 3 3 3 4 3 1 1 2 1 1 3 5 4 6 9 11 14 17 16 14 14 16 17 19 16 7 6 7 7 10 9 8 11 15 15 16 18 20 21 20 20 19 16 18 23 24 24 26 25 23 25 26
9 6 5 6 5 5 6 10 11 10 8 6 3 1 4 5 3 3 3 2 3 3 1 1 3 4 4 5 4 4 8 6 2 1 2 2 4 6 3 2 2 1 2 0 0 1 4 5 2 1 8 13 16 18 20 17 15 17 16 17 20 15 7 9 12 14 10 9 13 17 20 20 18 18 21 21 20 19 17 19 24 24 24 25 23 22 25 25
16 12 9 11 10 5 5 6 7 9 10 6 4 3 5 5 4 2 2 3 1 2 3 2 4 6 4 3 4 5 8 7 3 2 2 2 4 6 4 0 2 2 2 1 1 0 3 4 2 2 9 15 15 17 19 17 14 16 18 18 19 19 16 13 14 15 14 16 19 21 22 23 19 17 19 23 24 22 20 22 25 24 23 23 21 21 22 22
17 15 14 18 16 10 9 7 5 7 7 5 3 3 3 3 3 1 1 2 2 3 5 5 7 9 4 2 4 4 6 6 6 5 3 3 4 3 2 2 1 2 2 1 0 0 2 2 3 2 9 15 14 12 12 13 14 17 20 19 18 18 17 14 11 11 12 14 18 19 19 18 16 15 19 24 26 23 20 23 24 22 23 23 21 20 19 20
23 23 24 22 11 7 8 7 4 4 4 5 4 1 1 2 2 2 1 0 1 3 5 6 9 8 2 2 3 3 5 6 8 9 6 6 6 3 2 2 3 4 4 1 0 1 2 3 2 3 8 12 13 14 18 20 18 17 17 17 16 14 14 14 10 8 9 11 14 15 13 12 12 13 18 23 24 21 19 22 23 22 23 23 20 18 18 19
25 23 23 21 10 5 5 3 3 3 3 3 3 1 1 2 1 2 1 1 0 3 4 5 7 6 2 2 3 6 11 13 13 14 14 14 14 13 12 11 7 5 3 2 1 1 1 3 5 4 6 11 14 18 21 20 15 8 6 7 11 14 15 16 13 9 10 11 10 10 11 14 16 17 19 20 19 18 19 22 22 23 26 27 21 17 16 18
Wind_Direction
135 135 130 130 122 121 127 123 121 119 113 108 109 120 153 177 184 188 194 221 288 324 320 320 318 308 325 338 334 101 83 78 53 48 119 157 156 161 175 190 201 209 212 222 222 240 274 248 247 257 245 263 351 1 350 28 348 235 240 247 241 226 197 165 178 163 78 141 152 166 176 186 192 190 209 229 233 239 242 235 235 233 233 238 243 248 240 234
129 127 122 120 115 123 129 125 122 117 111 108 105 116 148 195 213 225 237 269 294 304 308 311 309 301 304 312 217 154 101 93 58 35 53 109 145 148 150 166 183 195 203 225 244 263 270 256 251 257 250 250 341 322 268 3 317 275 270 258 260 31 70 58 108 109 40 168 161 169 180 191 199 190 194 214 227 225 234 239 235 237 239 237 236 244 246 243
125 122 120 121 123 129 132 128 123 116 108 100 93 85 349 256 250 259 269 284 292 298 307 310 307 305 299 273 194 150 115 108 41 19 15 137 142 132 125 123 117 132 157 245 250 246 244 255 261 264 266 260 351 295 284 340 313 315 280 265 33 62 78 64 42 69 18 355 161 171 183 197 206 194 190 213 234 224 228 234 230 234 237 238 236 235 241 244
122 122 124 129 132 133 135 132 124 115 101 91 82 14 317 295 281 274 278 285 290 299 312 320 319 312 283 176 156 129 127 151 35 9 355 147 137 122 113 110 103 109 112 78 263 238 222 241 277 280 274 255 4 288 330 355 327 350 301 305 46 87 103 83 54 54 27 326 183 171 178 203 209 208 207 220 239 232 234 234 230 234 237 239 240 233 232 242
127 127 126 128 131 133 136 133 126 117 107 100 66 1 339 324 304 290 287 286 289 310 327 337 344 13 130 141 138 110 160 197 35 8 357 127 130 117 101 96 83 88 109 52 359 297 233 241 263 259 267 264 313 266 27 18 343 10 355 354 36 28 54 88 56 40 41 302 209 174 183 207 205 221 227 227 236 235 241 238 232 237 244 246 248 239 228 235
129 125 123 122 125 130 133 132 127 119 109 80 24 10 2 348 328 315 299 289 287 325 8 32 60 99 122 132 112 49 358 60 26 8 41 92 111 101 84 74 47 15 328 336 324 294 261 245 245 251 267 285 351 347 37 17 306 298 118 110 48 26 31 82 47 16 159 230 203 187 203 208 211 234 234 232 238 241 251 257 239 237 241 246 250 247 231 229
129 126 124 123 125 128 129 127 122 112 97 68 48 49 43 34 21 4 331 84 115 87 77 96 96 103 114 110 90 62 55 54 27 24 59 76 88 80 64 54 22 348 335 325 299 280 263 248 243 252 258 259 24 27 29 11 334 316 123 119 66 34 31 61 29 357 179 217 209 200 223 218 224 242 245 239 241 243 250 257 256 252 248 246 246 246 240 234
130 128 127 126 128 128 128 125 117 108 101 97 82 75 65 53 46 44 63 119 119 99 103 112 103 104 110 101 95 76 48 30 32 49 57 60 62 51 40 35 2 348 343 315 307 278 249 254 240 230 248 46 51 68 17 352 34 17 108 117 86 52 49 76 38 181 183 225 232 241 239 238 240 253 262 250 248 247 250 252 252 255 257 256 253 250 246 241
134 133 132 131 133 131 133 128 111 107 112 109 95 81 67 56 49 41 38 107 120 103 113 116 109 113 112 101 115 74 31 15 36 50 51 54 45 35 31 20 8 4 339 298 301 285 252 258 223 226 177 84 106 86 3 315 43 64 109 125 129 109 111 155 179 172 194 223 235 244 243 250 248 260 269 255 253 252 250 250 246 246 250 255 258 256 252 246
138 137 137 136 138 139 141 130 104 128 127 115 98 81 68 57 44 30 23 103 125 112 114 123 119 102 87 67 90 72 31 30 43 42 50 46 36 32 20 358 18 20 339 299 275 254 271 254 163 165 115 99 92 52 349 332 74 101 112 110 117 138 165 188 196 172 211 234 226 246 258 262 241 206 264 256 249 248 241 242 241 237 240 248 255 256 256 251
145 145 143 144 147 151 158 140 133 139 130 113 95 78 67 59 45 37 49 109 129 117 109 136 122 87 87 84 78 75 48 49 48 44 45 33 30 14 355 359 21 28 6 341 255 198 202 167 149 142 127 122 100 70 47 64 107 117 116 107 122 183 199 202 212 189 223 232 211 254 276 267 244 205 251 251 236 230 223 228 231 232 240 248 251 251 253 253
149 150 150 158 164 176 173 134 136 135 124 107 86 66 62 72 65 50 73 98 105 102 104 121 113 96 96 80 69 71 62 61 58 55 58 46 32 342 339 354 354 17 40 19 57 119 162 164 155 130 99 132 141 102 95 103 111 130 157 181 161 212 221 207 209 198 228 218 173 273 283 260 227 219 247 253 240 228 226 236 239 239 245 249 249 249 248 250
144 152 162 173 186 185 150 134 137 131 118 95 72 56 59 84 90 79 92 93 92 103 111 115 105 90 85 73 64 68 65 66 68 69 80 69 51 39 38 23 2 57 68 42 61 79 150 174 171 129 105 103 129 124 119 120 130 170 231 265 198 228 222 196 200 199 224 215 140 282 286 273 229 221 242 250 226 221 231 242 245 244 245 247 247 249 251 251
111 115 141 165 171 155 139 141 140 128 113 88 61 37 61 106 91 89 105 92 85 110 129 126 97 75 84 86 71 70 68 67 68 74 93 85 65 57 66 69 73 84 83 69 68 77 96 117 137 122 101 87 110 126 132 154 197 205 233 253 230 263 198 167 185 198 209 181 153 244 271 282 289 248 226 202 196 212 236 245 246 246 246 248 248 250 255 255
91 96 118 139 140 139 142 150 145 129 109 71 26 37 95 122 94 87 92 84 87 104 129 142 116 91 92 95 88 79 69 59 64 79 96 99 88 62 69 70 66 68 64 53 58 77 94 98 99 100 98 104 125 147 177 187 207 217 237 265 241 275 237 162 181 207 228 182 171 217 271 273 293 306 143 163 210 221 244 253 253 254 252 254 255 256 260 261
85 89 112 127 127 136 146 157 159 146 110 53 64 82 112 124 101 100 87 75 91 95 106 120 113 112 104 96 91 72 59 53 67 82 86 97 102 91 74 54 40 39 41 48 65 87 100 98 99 108 122 138 165 228 238 212 210 193 231 300 301 282 294 212 173 201 241 273 198 217 265 280 285 294 186 203 235 227 246 259 257 258 257 260 263 263 264 266
84 90 122 131 128 136 148 161 168 162 134 113 95 94 120 121 108 111 91 87 98 87 88 92 95 102 83 75 76 40 28 45 53 63 73 92 91 86 56 10 340 9 39 63 75 101 113 101 112 125 151 181 305 280 265 256 245 170 258 297 290 277 292 281 196 179 206 227 234 229 247 265 270 275 272 264 246 229 244 257 257 259 261 264 267 266 265 265
96 110 131 137 135 136 144 151 153 151 136 126 119 114 116 111 119 135 130 142 112 42 63 33 12 115 74 54 39 12 0 25 30 33 57 100 52 5 337 292 259 246 230 187 71 338 179 189 200 169 119 51 24 329 304 333 331 337 333 311 303 294 280 276 266 146 195 224 246 251 255 264 268 271 273 272 262 247 247 253 257 260 262 265 265 264 265 262
121 130 136 139 137 133 136 139 142 143 136 135 138 127 102 89 97 94 91 109 39 13 42 15 12 81 86 48 18 16 22 27 20 3 333 233 334 349 353 328 248 233 240 233 47 9 287 214 217 176 43 25 14 357 346 354 330 317 313 297 294 295 280 279 282 124 214 262 255 256 260 268 273 273 272 273 270 263 257 252 252 256 259 260 260 261 261 260
131 139 143 140 136 132 129 131 141 141 135 134 129 116 107 98 82 68 67 72 70 67 65 42 47 68 71 25 354 19 36 35 31 355 308 263 287 316 337 314 221 183 288 296 38 8 275 80 61 21 7 353 344 338 322 307 300 295 288 274 274 279 279 283 287 121 130 284 265 262 269 272 274 276 275 273 270 267 262 251 244 247 251 253 256 258 257 260
137 144 149 143 138 132 125 134 139 135 133 131 116 93 127 120 86 85 74 68 71 72 69 62 60 59 54 33 9 27 28 37 43 12 342 299 285 285 317 291 228 109 43 287 262 258 274 55 53 11 339 323 301 279 270 267 273 273 272 271 274 276 283 292 306 108 126 274 270 276 283 279 276 277 276 274 270 264 260 250 241 243 247 250 252 251 256 261
142 150 151 146 144 135 132 139 137 137 142 139 117 104 118 108 98 102 96 81 69 66 66 60 55 50 45 42 38 44 32 31 41 24 25 34 358 352 2 357 79 77 34 275 255 229 110 82 80 85 202 250 232 228 258 268 263 261 262 267 280 308 310 303 44 114 178 230 279 298 299 288 284 280 274 271 268 261 260 253 245 247 248 247 247 249 258 262
147 157 154 152 150 142 145 146 137 145 164 161 128 116 110 102 97 93 98 107 75 57 58 55 51 43 36 35 30 41 47 38 21 8 16 27 29 36 17 15 56 57 18 359 334 304 58 73 81 97 122 273 258 228 252 267 254 242 253 269 287 326 330 304 154 311 273 241 278 303 298 283 283 278 267 262 264 264 261 253 246 249 248 243 245 253 261 264
150 157 156 157 153 150 156 164 169 149 157 154 125 112 99 82 67 48 64 117 95 58 43 42 41 33 25 18 16 33 48 43 22 1 10 18 13 21 22 8 21 51 36 2 353 36 60 58 64 93 232 289 292 277 264 280 284 241 234 275 299 317 322 302 305 314 294 249 256 298 289 269 274 283 277 231 211 250 245 246 245 239 245 247 246 254 266 273
150 156 160 160 158 159 162 171 179 135 135 138 121 108 92 59 20 0 326 209 100 41 14 29 32 21 12 1 0 7 38 38 25 7 11 19 13 10 33 9 350 39 38 345 337 50 76 71 62 338 260 288 296 289 285 303 306 287 229 347 328 322 316 303 312 319 305 265 165 316 308 293 290 301 301 297 241 259 193 206 239 229 229 236 241 260 279 287
151 156 161 162 163 163 161 167 165 144 137 139 134 121 51 0 353 359 325 215 69 15 354 14 15 10 6 357 352 326 200 25 14 10 7 11 15 8 354 16 9 43 30 329 320 268 89 114 183 288 295 292 285 279 301 27 309 308 31 351 326 317 307 301 313 315 301 305 278 211 290 291 296 298 299 307 298 287 206 199 238 228 210 211 232 281 302 306
152 155 162 165 167 164 162 177 173 160 155 174 194 278 319 323 334 347 309 197 53 2 343 3 7 5 357 358 5 358 210 348 344 9 4 360 10 5 352 19 12 53 44 310 319 121 114 143 192 265 293 282 285 287 13 6 304 304 40 335 315 306 295 293 303 281 275 304 289 214 222 267 290 300 306 78 300 293 267 238 214 196 215 213 289 331 329 323
152 156 161 163 166 166 169 189 184 182 194 228 286 312 320 321 327 329 288 141 24 342 346 353 341 354 349 5 26 39 23 1 347 358 2 7 16 5 12 25 354 46 55 297 335 35 189 227 205 271 282 281 311 350 357 313 278 298 15 321 300 288 282 278 277 272 274 304 293 207 197 254 282 297 326 139 290 305 312 303 256 227 253 262 327 338 338 334
153 158 163 164 169 174 179 188 193 206 225 254 294 315 325 329 322 298 237 86 6 331 350 351 338 351 349 354 31 32 24 16 11 352 5 23 22 15 106 84 91 122 138 250 302 338 72 41 42 292 277 295 339 322 294 251 254 310 330 289 269 253 258 256 250 272 275 274 279 202 177 262 288 299 308 280 280 323 345 322 298 282 275 276 304 321 332 344
156 161 167 169 173 181 188 189 204 232 254 273 288 309 326 330 311 261 76 47 354 343 342 360 358 346 350 350 36 24 20 17 5 357 14 28 20 21 53 170 175 204 210 213 251 238 119 100 214 248 266 298 319 288 225 232 269 319 308 280 270 239 220 231 238 257 267 256 274 113 144 275 293 294 303 311 67 54 336 317 302 286 271 279 291 293 314 351
162 166 172 176 181 189 196 207 242 262 282 285 283 313 321 319 283 175 60 31 317 349 345 7 11 351 360 16 23 5 1 8 5 5 12 16 20 20 15 343 300 270 236 239 250 181 154 185 179 164 252 266 293 278 204 204 254 289 282 285 298 279 206 223 218 198 256 277 82 89 94 273 267 275 298 312 291 218 273 293 289 282 275 293 307 306 319 338
168 171 175 180 188 193 201 232 278 295 308 295 290 314 305 289 48 45 35 322 307 6 7 356 353 344 345 339 357 355 343 352 5 17 8 353 34 33 23 15 346 326 7 357 324 289 186 168 138 133 129 296 295 301 236 169 194 253 288 310 317 318 319 289 278 254 280 308 99 72 10 280 262 275 285 290 293 295 300 273 263 277 287 319 343 342 341 340
176 180 182 187 196 203 214 232 278 308 316 312 305 305 280 94 48 47 8 347 340 358 337 287 311 312 301 312 8 349 301 343 351 354 329 297 57 62 59 42 5 325 335 337 329 333 356 127 142 159 124 62 307 318 329 295 310 318 327 334 328 330 326 307 307 307 300 319 95 82 13 287 272 285 287 293 309 326 334 308 278 287 301 327 347 348 346 348
180 183 188 197 202 211 227 240 280 302 318 339 314 289 346 67 66 87 20 12 1 297 292 286 299 292 288 10 23 349 302 85 355 333 314 309 15 40 61 49 22 343 297 313 339 343 326 327 350 12 55 14 324 340 346 316 311 329 356 328 316 325 317 307 314 314 308 313 320 51 13 285 289 319 320 315 321 344 360 345 324 321 317 316 321 335 347 349
180 185 190 202 211 223 240 254 279 299 346 350 320 359 49 73 73 21 20 358 318 315 302 291 301 290 31 84 92 32 19 45 5 350 1 2 23 21 6 22 15 1 323 330 7 327 303 306 82 77 58 340 347 62 19 312 305 344 6 298 307 339 323 298 291 296 305 303 297 250 233 271 292 305 311 307 322 6 12 2 358 352 338 315 307 327 344 343
164 174 173 185 202 209 222 259 274 310 15 337 20 63 58 75 22 2 16 340 313 326 311 302 334 339 17 28 91 64 43 322 336 335 46 49 36 23 9 17 10 5 6 348 346 338 314 300 234 149 142 134 49 127 152 324 327 315 305 318 324 275 277 287 283 287 293 280 280 279 284 301 307 307 317 318 339 358 354 348 352 348 343 337 331 337 340 337
136 145 136 136 135 136 130 58 16 108 63 49 75 71 60 70 16 1 3 346 311 307 308 324 24 2 360 356 16 10 336 304 338 330 32 47 22 37 14 38 42 11 24 359 329 35 327 294 288 286 283 160 160 210 213 197 271 297 326 341 324 251 219 271 278 289 297 286 293 306 306 311 308 310 347 337 332 342 338 335 342 343 342 342 339 338 336 334
103 113 104 99 102 109 107 83 80 96 85 76 83 82 67 39 30 7 351 339 298 279 331 18 32 354 350 350 3 356 336 344 351 343 10 13 12 49 351 15 78 37 22 327 290 43 308 290 307 347 300 242 165 223 248 184 220 293 326 325 322 300 281 289 291 301 304 294 293 302 307 304 295 305 343 331 325 331 330 329 334 339 339 336 335 338 338 336
93 91 75 65 92 95 84 109 112 95 78 70 76 87 67 50 52 12 349 337 287 285 9 31 18 31 18 350 345 3 1 1 345 344 21 4 350 51 37 9 38 63 9 318 304 350 299 287 327 186 259 252 177 222 295 209 194 257 277 249 152 252 270 290 303 297 290 288 290 302 309 298 290 300 315 316 320 325 326 328 332 336 333 332 340 345 342 337
95 75 54 59 90 90 89 107 96 74 62 61 59 68 59 60 64 3 4 10 323 345 28 24 356 8 13 353 17 18 354 342 337 344 11 357 340 49 63 30 350 356 324 288 288 306 278 259 286 285 261 280 287 304 341 342 330 229 277 272 266 253 239 270 276 253 272 287 291 300 299 289 288 294 302 310 316 318 322 328 331 329 328 333 345 346 340 338
103 78 51 72 93 97 96 90 73 53 53 72 63 63 64 57 43 356 8 23 32 25 32 28 17 16 350 352 43 16 337 321 331 335 350 13 6 24 49 35 357 350 319 282 269 314 318 276 289 304 304 302 324 38 32 11 358 309 303 299 297 292 288 293 286 259 251 280 287 296 292 282 279 286 301 309 309 312 321 327 326 325 329 336 342 339 337 336
89 73 47 80 94 96 90 76 43 15 59 72 58 51 58 46 15 5 8 13 21 14 24 46 22 16 13 359 345 349 345 315 323 348 332 341 351 345 14 13 354 341 311 299 339 23 356 290 283 291 286 289 345 71 64 48 356 271 260 265 280 285 273 279 295 317 306 284 287 280 273 272 273 281 299 307 305 311 321 326 329 333 334 335 335 334 333 332
71 63 67 89 92 85 85 77 43 50 64 78 81 53 52 42 12 11 14 13 11 344 7 63 11 11 42 12 320 337 354 299 273 334 322 307 344 359 347 349 342 330 308 297 6 33 355 272 289 295 288 288 96 101 90 79 206 245 254 252 244 256 279 275 298 331 309 285 283 273 269 274 281 288 299 306 307 309 319 327 336 341 334 332 332 332 332 331
73 64 56 51 87 91 81 76 83 84 86 125 99 62 57 56 30 20 18 16 16 348 352 39 26 8 19 337 302 317 348 341 232 304 333 317 333 354 350 358 357 355 359 350 359 3 330 290 321 317 311 324 357 49 44 8 284 292 295 274 221 177 49 359 303 314 266 268 269 270 272 273 283 295 301 305 305 307 319 329 335 336 329 329 332 332 332 332
77 63 53 54 78 93 83 80 99 105 116 115 91 40 39 58 34 29 36 21 20 8 346 16 359 321 306 256 256 270 301 314 295 6 4 299 284 306 348 1 44 23 9 354 342 347 305 292 317 312 316 328 324 326 330 321 317 311 302 296 259 166 166 231 281 273 262 271 271 268 270 276 288 297 300 302 302 307 321 328 329 327 325 328 332 330 330 333
78 65 51 56 70 77 76 77 82 95 113 100 81 26 19 46 27 23 37 35 28 22 352 350 320 285 271 285 290 279 232 211 257 341 317 297 328 30 349 357 17 354 351 341 343 346 283 273 268 258 270 288 292 294 301 308 310 299 293 294 288 195 175 214 265 257 257 278 279 271 269 278 291 299 302 304 304 307 318 327 324 321 323 328 330 328 328 332
74 60 22 53 65 64 64 59 50 55 52 25 56 18 13 34 33 5 28 36 18 10 313 311 1 338 330 337 324 310 324 300 233 303 305 295 325 315 314 4 11 310 1 6 7 340 285 284 275 250 250 258 271 282 289 295 290 281 283 286 286 272 168 179 227 244 256 280 277 272 276 282 292 299 300 301 303 305 313 322 319 317 322 326 326 326 327 329
87 86 74 90 78 34 44 45 37 51 55 44 82 59 14 37 39 3 8 345 342 6 335 229 34 25 354 333 320 324 337 330 272 294 335 338 341 323 321 72 81 41 50 77 119 6 289 284 310 272 261 260 263 272 277 279 274 270 270 271 279 279 233 207 233 242 244 251 259 271 281 283 284 289 292 294 296 300 308 315 315 314 318 321 323 323 322 323
105 102 79 85 89 76 75 63 52 63 54 42 75 51 17 33 34 8 329 300 297 32 1 332 4 7 359 326 310 328 347 343 320 342 13 345 325 314 303 283 115 68 42 248 246 50 264 279 13 337 288 280 266 257 260 265 269 273 271 266 271 276 265 248 243 243 241 243 252 265 273 275 276 277 280 282 285 293 303 309 312 315 318 319 316 313 314 317
114 113 106 100 91 71 61 50 52 75 51 26 60 43 1 19 20 349 304 325 347 12 359 347 343 343 343 292 288 319 4 354 315 312 355 335 318 318 306 315 19 1 323 288 43 199 240 308 33 344 295 295 288 274 275 283 284 281 278 275 274 277 278 269 252 245 246 249 256 263 265 269 272 268 271 279 288 299 306 308 311 314 316 314 306 301 307 315
112 118 117 109 87 33 45 45 32 74 56 25 46 51 335 15 8 332 298 285 358 352 349 340 333 334 323 248 286 327 4 346 299 290 291 275 276 281 265 295 354 338 309 279 168 236 256 285 320 323 301 295 301 313 316 311 300 281 272 274 278 286 294 292 275 244 232 248 266 271 268 272 279 283 289 295 300 303 303 306 311 312 312 307 295 291 302 314
111 117 113 104 92 16 33 42 13 65 78 19 24 25 349 10 313 274 269 214 259 328 336 333 327 325 302 297 328 324 319 311 291 281 275 260 256 258 258 265 277 274 272 293 264 228 280 293 300 322 305 288 299 317 318 312 306 290 256 266 291 300 299 295 288 261 233 239 263 273 272 281 292 300 303 302 303 304 304 309 313 314 312 304 289 285 301 315
Height
1517 1518 1518 1519 1519 1519 1519 1519 1519 1519 1519 1519 1519 1519 1519 1520 1520 1520 1520 1520 1520 1520 1520 1519 1519 1518 1518 1518 1518 1518 1518 1518 1519 1518 1517 1517 1517 1517 1517 1517 1517 1517 1517 1518 1518 1518 1518 1518 1517 1517 1516 1515 1515 1514 1514 1513 1513 1512 1508 1505 1502 1500 1503 1505 1505 1507 1508 1509 1514 1517 1518 1519 1520 1522 1524 1524 1524 1524 1524 1523 1523 1523 1522 1523 1523 1521 1521 1522
1518 1518 1518 1519 1519 1519 1519 1519 1519 1520 1520 1520 1520 1520 1520 1520 1520 1520 1520 1520 1520 1519 1519 1518 1518 1518 1518 1518 1518 1519 1518 1518 1520 1519 1518 1518 1517 1517 1517 1518 1518 1518 1518 1518 1518 1519 1519 1518 1517 1517 1516 1515 1515 1515 1514 1514 1513 1511 1507 1503 1501 1502 1505 1507 1506 1508 1510 1510 1513 1516 1518 1519 1519 1520 1523 1523 1522 1522 1522 1521 1522 1522 1520 1521 1521 1520 1520 1520
1518 1518 1518 1519 1519 1519 1519 1520 1520 1520 1520 1520 1520 1520 1520 1520 1520 1521 1520 1520 1519 1519 1518 1518 1517 1517 1517 1517 1518 1518 1518 1519 1520 1520 1519 1518 1518 1518 1518 1518 1518 1519 1518 1518 1518 1518 1518 1518 1517 1517 1516 1514 1515 1515 1514 1514 1512 1512 1509 1503 1503 1507 1509 1510 1510 1512 1513 1512 1514 1516 1518 1519 1519 1520 1521 1521 1520 1519 1518 1517 1518 1518 1517 1518 1518 1518 1518 1518
1518 1518 1519 1519 1519 1520 1520 1520 1521 1521 1521 1521 1521 1521 1521 1521 1520 1520 1520 1519 1519 1518 1518 1517 1516 1515 1516 1517 1518 1519 1518 1518 1520 1521 1520 1519 1519 1519 1519 1519 1519 1519 1519 1518 1518 1518 1517 1517 1517 1517 1516 1514 1515 1515 1514 1514 1513 1512 1511 1507 1508 1510 1510 1512 1514 1514 1515 1515 1514 1516 1519 1519 1519 1520 1520 1520 1519 1516 1514 1514 1515 1514 1514 1515 1516 1517 1516 1515
1518 1519 1519 1519 1520 1520 1521 1521 1521 1521 1521 1521 1521 1521 1521 1520 1520 1520 1519 1519 1518 1518 1518 1517 1515 1514 1515 1517 1518 1519 1518 1519 1521 1521 1520 1520 1520 1520 1520 1520 1520 1519 1519 1518 1518 1518 1518 1518 1517 1517 1516 1514 1514 1514 1514 1516 1514 1513 1514 1514 1513 1511 1511 1514 1516 1515 1517 1517 1516 1517 1519 1519 1519 1520 1519 1519 1516 1512 1511 1511 1512 1512 1513 1514 1514 1514 1514 1513
1519 1519 1520 1520 1520 1521 1521 1522 1522 1522 1522 1522 1521 1521 1521 1520 1520 1519 1519 1518 1518 1518 1518 1517 1516 1515 1517 1518 1519 1519 1519 1520 1522 1522 1521 1521 1520 1520 1520 1520 1520 1520 1519 1518 1519 1518 1518 1518 1517 1516 1515 1515 1514 1514 1515 1516 1515 1513 1514 1516 1515 1514 1514 1516 1517 1517 1518 1518 1517 1518 1518 1518 1519 1518 1517 1517 1512 1509 1509 1510 1510 1511 1511 1512 1512 1512 1512 1511
1520 1520 1520 1521 1521 1522 1522 1522 1522 1522 1522 1522 1522 1522 1521 1521 1520 1519 1518 1518 1518 1519 1518 1518 1517 1517 1518 1519 1520 1521 1521 1522 1523 1522 1522 1521 1521 1521 1521 1521 1520 1520 1519 1519 1519 1518 1518 1518 1517 1516 1516 1515 1515 1516 1517 1517 1515 1513 1515 1517 1517 1517 1517 1517 1518 1518 1519 1519 1518 1519 1519 1518 1518 1517 1515 1512 1509 1508 1509 1509 1509 1509 1509 1509 1509 1509 1510 1509
1521 1521 1522 1522 1522 1522 1523 1523 1523 1523 1523 1523 1523 1522 1522 1521 1520 1519 1519 1518 1519 1519 1519 1519 1519 1519 1519 1520 1520 1522 1523 1523 1524 1522 1522 1522 1521 1522 1521 1521 1520 1520 1519 1519 1519 1518 1518 1517 1516 1516 1516 1516 1517 1517 1518 1516 1516 1515 1516 1518 1518 1519 1519 1519 1520 1519 1520 1520 1519 1520 1518 1517 1516 1516 1512 1507 1506 1506 1506 1506 1507 1506 1506 1506 1506 1506 1507 1506
1522 1522 1522 1523 1523 1523 1524 1524 1524 1524 1524 1524 1523 1523 1522 1522 1521 1520 1519 1519 1519 1519 1520 1520 1520 1520 1520 1521 1521 1522 1525 1525 1524 1523 1523 1522 1522 1522 1521 1521 1521 1520 1519 1519 1518 1518 1518 1517 1517 1516 1516 1517 1517 1518 1519 1517 1516 1517 1519 1519 1519 1520 1520 1521 1520 1520 1521 1520 1521 1519 1518 1516 1515 1515 1508 1501 1502 1502 1503 1504 1504 1504 1503 1502 1502 1502 1503 1503
1522 1523 1523 1524 1524 1524 1525 1525 1525 1524 1524 1524 1524 1524 1523 1523 1522 1521 1520 1519 1520 1520 1521 1521 1521 1522 1522 1522 1521 1523 1527 1525 1524 1524 1523 1523 1522 1522 1522 1521 1521 1520 1519 1518 1518 1518 1518 1517 1517 1517 1517 1518 1519 1519 1520 1519 1519 1520 1521 1521 1521 1522 1522 1522 1521 1521 1521 1520 1521 1519 1517 1514 1514 1515 1504 1495 1499 1499 1500 1501 1500 1502 1501 1500 1500 1499 1499 1499
1523 1524 1524 1524 1525 1525 1525 1525 1525 1525 1525 1525 1525 1524 1524 1523 1523 1522 1521 1520 1521 1521 1522 1522 1522 1523 1523 1522 1522 1525 1527 1525 1524 1524 1523 1523 1523 1522 1522 1521 1521 1520 1520 1518 1517 1517 1518 1517 1517 1518 1518 1518 1520 1521 1521 1522 1523 1522 1523 1523 1523 1523 1523 1522 1521 1521 1521 1520 1520 1519 1516 1512 1513 1512 1498 1493 1497 1497 1498 1498 1498 1499 1497 1498 1497 1497 1497 1496
1524 1524 1525 1525 1525 1526 1526 1526 1526 1526 1526 1526 1526 1525 1525 1525 1524 1524 1523 1522 1522 1522 1523 1523 1523 1524 1524 1523 1524 1527 1527 1525 1525 1525 1524 1524 1523 1523 1522 1522 1521 1520 1520 1519 1518 1517 1517 1517 1518 1518 1518 1519 1521 1522 1523 1524 1524 1524 1524 1523 1523 1523 1522 1520 1520 1520 1520 1518 1519 1520 1514 1504 1503 1501 1490 1490 1495 1495 1496 1496 1496 1496 1495 1495 1495 1495 1495 1493
1524 1524 1525 1525 1525 1526 1526 1527 1527 1527 1527 1527 1526 1526 1526 1526 1525 1525 1524 1524 1524 1524 1524 1524 1524 1524 1524 1525 1528 1528 1527 1526 1526 1525 1525 1524 1525 1524 1522 1522 1521 1520 1520 1519 1518 1518 1517 1517 1518 1518 1519 1520 1522 1523 1524 1525 1525 1525 1523 1521 1521 1521 1517 1516 1518 1519 1519 1518 1517 1520 1512 1493 1488 1490 1487 1489 1493 1493 1495 1494 1494 1493 1493 1493 1492 1492 1492 1491
1524 1524 1525 1525 1526 1526 1527 1527 1527 1528 1528 1527 1527 1527 1527 1526 1526 1525 1525 1525 1525 1525 1525 1525 1525 1525 1525 1527 1530 1529 1527 1527 1526 1526 1525 1525 1526 1525 1523 1522 1521 1521 1520 1520 1519 1518 1518 1518 1518 1519 1520 1521 1523 1525 1525 1525 1524 1522 1522 1521 1518 1515 1513 1514 1517 1517 1517 1516 1516 1520 1514 1494 1485 1485 1486 1489 1491 1492 1492 1491 1491 1490 1490 1490 1490 1490 1489 1488
1524 1524 1525 1525 1526 1526 1527 1528 1528 1528 1528 1528 1528 1527 1527 1527 1527 1526 1526 1526 1525 1525 1526 1525 1526 1526 1526 1529 1530 1529 1528 1528 1528 1528 1526 1525 1526 1526 1525 1523 1522 1522 1521 1521 1520 1519 1519 1519 1520 1521 1522 1523 1524 1524 1522 1522 1521 1520 1521 1518 1513 1513 1512 1512 1516 1515 1514 1515 1516 1518 1512 1495 1486 1484 1486 1489 1490 1491 1490 1489 1489 1487 1488 1488 1487 1487 1486 1485
1524 1525 1525 1526 1526 1527 1527 1528 1528 1529 1529 1528 1528 1528 1528 1528 1528 1528 1527 1527 1527 1526 1526 1526 1526 1526 1527 1530 1530 1530 1530 1529 1529 1528 1527 1526 1526 1526 1525 1524 1524 1523 1522 1522 1521 1521 1521 1521 1522 1522 1523 1523 1522 1521 1520 1519 1517 1516 1517 1515 1512 1515 1512 1510 1514 1515 1514 1514 1515 1515 1509 1496 1488 1486 1487 1488 1488 1489 1488 1486 1486 1485 1485 1485 1485 1484 1484 1483
1525 1525 1525 1526 1527 1527 1528 1528 1529 1529 1529 1529 1529 1529 1529 1529 1530 1529 1529 1528 1528 1528 1528 1528 1528 1527 1528 1530 1531 1531 1530 1530 1529 1528 1528 1527 1526 1526 1526 1525 1525 1524 1524 1523 1522 1523 1522 1522 1522 1522 1521 1521 1520 1519 1519 1518 1514 1512 1515 1514 1512 1516 1514 1511 1512 1514 1515 1515 1512 1511 1508 1498 1489 1486 1485 1485 1485 1485 1484 1483 1482 1482 1482 1481 1482 1481 1481 1481
1525 1525 1525 1526 1527 1528 1528 1529 1530 1530 1530 1530 1530 1530 1530 1531 1531 1530 1530 1529 1529 1528 1528 1528 1527 1527 1530 1532 1532 1532 1531 1530 1529 1529 1528 1528 1527 1527 1526 1526 1526 1525 1525 1524 1523 1523 1522 1522 1521 1519 1519 1520 1522 1522 1522 1524 1524 1522 1521 1519 1516 1516 1515 1510 1509 1512 1513 1513 1511 1508 1503 1493 1486 1484 1482 1481 1481 1480 1478 1479 1478 1478 1478 1478 1478 1478 1478 1478
1525 1525 1526 1527 1527 1528 1529 1530 1530 1530 1531 1531 1532 1532 1532 1532 1532 1531 1531 1530 1529 1529 1531 1531 1529 1529 1533 1534 1533 1533 1531 1530 1530 1530 1529 1528 1528 1527 1526 1526 1526 1525 1524 1522 1523 1523 1522 1521 1519 1519 1523 1527 1530 1531 1530 1531 1531 1530 1528 1527 1525 1520 1514 1507 1507 1511 1513 1512 1508 1504 1499 1489 1482 1480 1477 1476 1476 1475 1473 1473 1474 1474 1474 1475 1475 1475 1475 1475
1525 1526 1526 1527 1528 1529 1530 1530 1531 1531 1532 1532 1533 1533 1533 1533 1533 1534 1533 1531 1532 1534 1535 1535 1533 1534 1535 1535 1534 1533 1532 1532 1531 1531 1530 1529 1528 1528 1527 1527 1526 1525 1525 1523 1523 1523 1521 1522 1525 1528 1532 1534 1535 1535 1535 1534 1532 1531 1529 1528 1524 1519 1513 1505 1505 1511 1513 1511 1502 1496 1493 1485 1479 1476 1472 1471 1471 1470 1468 1468 1469 1470 1470 1471 1471 1472 1472 1472
1525 1526 1527 1528 1529 1529 1530 1531 1532 1532 1533 1533 1534 1534 1534 1533 1533 1535 1536 1535 1537 1537 1537 1537 1536 1536 1536 1536 1535 1534 1533 1533 1533 1532 1530 1529 1529 1528 1527 1526 1524 1524 1526 1526 1525 1522 1520 1524 1532 1535 1535 1536 1536 1536 1535 1533 1532 1531 1529 1526 1520 1516 1511 1503 1505 1511 1512 1512 1501 1492 1491 1482 1476 1474 1467 1466 1467 1465 1463 1463 1464 1465 1466 1467 1468 1469 1469 1469
1526 1527 1527 1529 1530 1530 1532 1532 1533 1534 1534 1534 1535 1535 1535 1534 1534 1535 1535 1537 1540 1539 1538 1539 1538 1538 1538 1537 1536 1535 1535 1534 1533 1533 1531 1530 1529 1528 1527 1525 1524 1525 1526 1525 1523 1521 1522 1528 1535 1536 1536 1537 1536 1535 1535 1533 1532 1530 1525 1522 1517 1512 1509 1505 1508 1512 1512 1512 1500 1493 1494 1482 1472 1470 1463 1461 1461 1459 1459 1459 1461 1461 1462 1464 1464 1466 1466 1466
1527 1527 1528 1530 1531 1532 1533 1534 1535 1535 1535 1536 1536 1536 1536 1536 1536 1535 1535 1537 1540 1540 1540 1540 1539 1540 1539 1538 1538 1536 1536 1535 1534 1534 1532 1530 1530 1529 1527 1526 1525 1525 1525 1524 1522 1520 1522 1530 1536 1537 1538 1537 1534 1534 1535 1532 1529 1526 1522 1518 1515 1511 1513 1512 1509 1510 1510 1508 1502 1498 1500 1486 1469 1462 1456 1456 1457 1456 1458 1458 1459 1460 1460 1461 1463 1464 1464 1464
1527 1528 1530 1531 1532 1534 1534 1535 1536 1536 1536 1537 1537 1537 1537 1538 1538 1537 1537 1536 1538 1540 1541 1540 1540 1540 1539 1539 1538 1537 1536 1536 1536 1535 1533 1531 1530 1529 1529 1529 1527 1526 1528 1529 1526 1523 1528 1535 1537 1538 1539 1537 1535 1532 1531 1530 1523 1517 1517 1518 1517 1515 1518 1516 1510 1509 1503 1502 1505 1503 1494 1477 1462 1457 1452 1452 1456 1455 1456 1457 1457 1459 1459 1460 1461 1462 1463 1463
1528 1529 1531 1532 1533 1535 1535 1537 1538 1537 1538 1538 1538 1538 1538 1539 1538 1538 1538 1536 1538 1540 1540 1540 1540 1540 1540 1539 1538 1538 1537 1536 1537 1536 1534 1533 1532 1531 1531 1532 1530 1529 1532 1533 1529 1527 1532 1538 1538 1538 1538 1535 1535 1532 1529 1531 1523 1514 1517 1523 1523 1520 1521 1517 1513 1512 1502 1497 1504 1504 1494 1473 1457 1456 1453 1450 1453 1453 1454 1456 1456 1456 1457 1458 1460 1461 1462 1462
1528 1530 1531 1533 1534 1535 1536 1538 1538 1538 1539 1538 1539 1538 1538 1539 1537 1538 1537 1533 1538 1543 1541 1541 1541 1541 1541 1540 1538 1538 1537 1537 1538 1537 1536 1535 1534 1533 1533 1532 1532 1533 1535 1535 1533 1531 1534 1538 1539 1538 1536 1535 1535 1531 1529 1532 1527 1518 1522 1528 1527 1524 1523 1519 1517 1518 1507 1497 1498 1503 1504 1486 1464 1457 1454 1451 1453 1452 1452 1454 1453 1454 1455 1457 1459 1460 1461 1461
1529 1530 1532 1533 1535 1536 1538 1538 1538 1539 1539 1539 1540 1538 1538 1538 1536 1538 1536 1534 1543 1547 1544 1543 1543 1544 1543 1541 1539 1538 1539 1539 1538 1538 1537 1536 1535 1535 1534 1534 1534 1535 1537 1537 1532 1533 1535 1537 1538 1537 1537 1534 1531 1530 1530 1534 1531 1523 1525 1531 1527 1524 1523 1519 1519 1519 1510 1502 1497 1496 1502 1496 1477 1461 1453 1454 1455 1451 1450 1451 1451 1453 1454 1455 1457 1459 1459 1459
1529 1531 1532 1534 1536 1537 1538 1539 1539 1539 1539 1540 1539 1539 1539 1537 1537 1538 1536 1545 1553 1548 1546 1546 1545 1545 1544 1543 1541 1540 1542 1541 1539 1539 1538 1537 1536 1535 1535 1536 1537 1537 1539 1538 1532 1532 1536 1536 1536 1536 1536 1532 1530 1532 1533 1535 1532 1525 1527 1530 1525 1524 1522 1519 1520 1516 1509 1507 1499 1491 1496 1496 1480 1459 1453 1457 1456 1452 1451 1451 1451 1452 1453 1455 1456 1457 1458 1458
1530 1532 1533 1535 1537 1538 1539 1540 1540 1540 1540 1540 1539 1540 1538 1536 1538 1535 1534 1550 1557 1549 1548 1549 1545 1546 1545 1544 1544 1543 1543 1542 1542 1541 1539 1538 1537 1536 1536 1537 1538 1537 1538 1538 1533 1533 1536 1536 1536 1536 1534 1531 1531 1532 1533 1533 1530 1526 1528 1527 1524 1524 1521 1519 1519 1511 1510 1511 1499 1487 1491 1493 1478 1459 1455 1456 1454 1453 1453 1451 1452 1452 1453 1455 1455 1456 1457 1457
1532 1533 1534 1536 1537 1539 1540 1540 1541 1541 1541 1541 1540 1540 1538 1538 1537 1535 1543 1556 1556 1551 1551 1549 1549 1551 1548 1545 1545 1544 1545 1545 1544 1542 1540 1540 1538 1537 1537 1536 1537 1537 1537 1537 1534 1533 1536 1537 1536 1536 1533 1532 1533 1531 1530 1531 1529 1528 1528 1522 1516 1515 1516 1517 1513 1510 1511 1503 1492 1489 1492 1494 1486 1467 1454 1453 1455 1455 1454 1453 1453 1452 1453 1454 1454 1456 1456 1456
1533 1534 1536 1537 1538 1540 1541 1541 1542 1541 1541 1541 1541 1539 1539 1538 1533 1539 1556 1561 1554 1553 1553 1552 1555 1554 1552 1551 1549 1547 1547 1546 1545 1544 1541 1540 1540 1539 1538 1538 1538 1535 1531 1532 1532 1531 1535 1535 1534 1534 1534 1534 1534 1530 1528 1531 1531 1530 1525 1517 1510 1503 1504 1508 1506 1509 1509 1494 1489 1495 1494 1496 1493 1472 1454 1452 1455 1455 1455 1455 1455 1453 1453 1453 1454 1456 1456 1457
1534 1536 1537 1538 1540 1540 1541 1542 1542 1541 1542 1540 1540 1540 1539 1538 1541 1551 1562 1559 1557 1561 1560 1560 1560 1556 1556 1555 1552 1552 1550 1547 1547 1547 1546 1544 1544 1546 1547 1547 1547 1541 1535 1534 1532 1528 1529 1532 1532 1534 1535 1535 1534 1528 1524 1527 1529 1527 1520 1517 1515 1507 1504 1507 1502 1500 1497 1488 1492 1499 1497 1496 1486 1468 1458 1455 1454 1454 1454 1454 1454 1454 1454 1454 1456 1457 1457 1457
1536 1537 1538 1539 1540 1541 1542 1542 1542 1542 1542 1540 1541 1541 1538 1542 1556 1567 1565 1559 1564 1568 1566 1566 1562 1557 1557 1553 1553 1556 1553 1550 1549 1548 1550 1547 1546 1551 1554 1554 1554 1551 1544 1539 1536 1531 1528 1530 1531 1533 1534 1535 1535 1529 1525 1525 1524 1524 1522 1523 1524 1522 1522 1520 1508 1499 1494 1489 1493 1500 1502 1496 1478 1463 1459 1457 1455 1454 1454 1455 1455 1455 1455 1456 1457 1458 1457 1456
1537 1538 1539 1540 1541 1542 1542 1542 1543 1542 1542 1542 1541 1540 1542 1552 1567 1573 1568 1565 1568 1569 1567 1567 1563 1559 1557 1555 1558 1560 1554 1553 1552 1550 1549 1545 1544 1549 1552 1554 1555 1554 1549 1542 1541 1542 1538 1533 1530 1531 1533 1535 1536 1534 1534 1533 1528 1526 1528 1529 1529 1530 1532 1528 1516 1509 1505 1497 1495 1502 1504 1492 1476 1464 1457 1457 1456 1455 1456 1456 1456 1456 1456 1456 1456 1456 1456 1454
1537 1538 1540 1541 1542 1543 1543 1543 1544 1543 1543 1543 1541 1543 1552 1563 1568 1569 1569 1570 1570 1569 1567 1566 1564 1557 1553 1556 1561 1563 1560 1556 1553 1551 1549 1548 1550 1553 1555 1557 1558 1557 1553 1547 1546 1546 1540 1532 1531 1534 1534 1535 1535 1536 1539 1536 1529 1528 1529 1529 1530 1531 1532 1529 1519 1513 1515 1513 1504 1500 1493 1478 1469 1460 1454 1457 1456 1453 1456 1456 1456 1457 1455 1456 1455 1454 1454 1453
1539 1540 1541 1542 1543 1544 1544 1544 1544 1544 1544 1543 1544 1554 1566 1572 1572 1572 1575 1576 1574 1574 1569 1565 1564 1559 1554 1556 1558 1562 1564 1560 1555 1552 1551 1554 1557 1558 1559 1561 1563 1562 1560 1555 1551 1549 1543 1533 1530 1533 1534 1535 1536 1536 1537 1536 1531 1529 1528 1527 1530 1532 1532 1529 1521 1513 1517 1518 1503 1490 1483 1474 1469 1462 1454 1456 1455 1453 1456 1455 1455 1457 1456 1456 1455 1453 1453 1452
1540 1541 1542 1544 1544 1544 1545 1545 1544 1545 1544 1542 1550 1566 1575 1578 1579 1579 1581 1579 1578 1579 1571 1563 1567 1569 1563 1559 1559 1562 1564 1560 1557 1553 1551 1555 1558 1560 1562 1562 1565 1566 1565 1563 1556 1554 1555 1541 1528 1531 1533 1533 1536 1536 1535 1537 1536 1530 1529 1530 1530 1530 1529 1527 1525 1519 1517 1514 1500 1490 1490 1485 1480 1471 1459 1456 1457 1455 1455 1455 1454 1456 1457 1456 1455 1453 1452 1451
1542 1542 1543 1544 1545 1546 1546 1545 1546 1546 1544 1546 1560 1573 1578 1580 1582 1583 1583 1581 1580 1579 1571 1566 1571 1574 1570 1565 1564 1568 1566 1560 1557 1555 1554 1556 1558 1562 1563 1563 1566 1566 1566 1568 1560 1556 1560 1548 1531 1532 1534 1532 1534 1536 1532 1534 1537 1533 1532 1534 1532 1532 1530 1525 1524 1524 1523 1519 1507 1497 1496 1490 1482 1473 1465 1462 1460 1456 1455 1454 1454 1455 1456 1455 1453 1452 1451 1450
1544 1543 1545 1547 1547 1547 1547 1547 1547 1546 1544 1552 1566 1575 1579 1582 1584 1584 1583 1583 1581 1578 1573 1573 1575 1574 1572 1571 1570 1571 1570 1567 1563 1560 1559 1560 1560 1562 1564 1565 1566 1566 1566 1568 1563 1558 1558 1552 1540 1533 1533 1531 1531 1530 1526 1526 1534 1536 1534 1532 1532 1533 1531 1526 1524 1525 1524 1520 1512 1504 1501 1492 1477 1467 1465 1464 1459 1457 1457 1454 1453 1454 1454 1453 1452 1451 1450 1449
1545 1545 1548 1550 1548 1548 1549 1547 1547 1547 1552 1562 1571 1576 1582 1584 1584 1584 1584 1583 1582 1579 1577 1577 1576 1574 1574 1574 1574 1574 1573 1571 1568 1564 1562 1563 1562 1562 1566 1568 1567 1567 1568 1567 1566 1562 1557 1554 1546 1534 1529 1529 1526 1524 1523 1524 1528 1531 1528 1527 1528 1526 1524 1525 1522 1520 1520 1518 1512 1510 1507 1492 1473 1463 1462 1462 1459 1458 1456 1453 1453 1453 1452 1451 1451 1451 1450 1448
1545 1547 1551 1552 1550 1551 1550 1548 1552 1556 1563 1571 1575 1579 1584 1584 1584 1585 1584 1583 1582 1581 1581 1580 1578 1578 1577 1575 1575 1577 1575 1571 1569 1567 1565 1565 1564 1563 1568 1571 1569 1570 1569 1565 1565 1565 1559 1555 1550 1540 1533 1528 1523 1525 1530 1530 1530 1529 1526 1523 1523 1522 1525 1529 1524 1517 1520 1520 1513 1514 1512 1492 1471 1463 1463 1462 1460 1457 1455 1453 1451 1450 1450 1450 1450 1450 1449 1447
1546 1550 1555 1554 1553 1553 1550 1553 1563 1567 1570 1577 1580 1583 1585 1585 1586 1585 1584 1584 1583 1582 1582 1582 1581 1581 1581 1579 1577 1578 1577 1573 1569 1567 1566 1566 1566 1566 1569 1572 1572 1572 1570 1566 1565 1568 1567 1561 1555 1547 1536 1527 1526 1532 1535 1535 1534 1532 1529 1524 1522 1524 1527 1530 1527 1521 1521 1520 1515 1516 1513 1489 1467 1464 1464 1461 1458 1456 1454 1453 1450 1448 1450 1449 1449 1448 1446 1444
1549 1554 1557 1555 1555 1554 1552 1560 1571 1573 1577 1584 1585 1585 1586 1586 1586 1586 1585 1585 1584 1583 1582 1583 1584 1583 1583 1583 1581 1579 1578 1575 1570 1568 1567 1567 1568 1570 1571 1572 1572 1572 1572 1569 1567 1569 1569 1561 1554 1547 1532 1521 1527 1534 1536 1537 1536 1532 1527 1523 1524 1525 1526 1527 1529 1528 1527 1522 1514 1515 1508 1483 1463 1462 1462 1458 1456 1455 1454 1452 1450 1450 1450 1449 1448 1446 1444 1442
1553 1556 1558 1557 1556 1555 1555 1564 1574 1577 1583 1586 1585 1586 1587 1587 1588 1587 1587 1586 1585 1586 1584 1584 1586 1584 1584 1585 1583 1580 1579 1576 1572 1570 1570 1570 1570 1572 1573 1573 1574 1573 1573 1573 1572 1573 1567 1556 1553 1551 1539 1529 1528 1529 1531 1534 1533 1526 1520 1519 1522 1525 1529 1532 1531 1532 1531 1520 1510 1512 1504 1478 1462 1461 1460 1457 1455 1453 1452 1452 1450 1450 1450 1448 1447 1444 1442 1440
1554 1558 1561 1560 1559 1557 1561 1569 1573 1577 1583 1584 1585 1588 1587 1588 1590 1589 1589 1589 1588 1588 1586 1585 1586 1586 1585 1585 1582 1581 1581 1578 1574 1573 1574 1572 1571 1573 1574 1574 1575 1575 1575 1576 1576 1576 1570 1560 1558 1558 1554 1548 1541 1536 1533 1531 1528 1525 1519 1518 1522 1526 1531 1530 1527 1529 1526 1513 1503 1503 1493 1472 1461 1461 1459 1456 1454 1451 1451 1451 1449 1448 1448 1446 1445 1442 1440 1437
1555 1561 1566 1566 1564 1564 1569 1574 1575 1577 1582 1582 1584 1589 1589 1589 1591 1590 1590 1590 1589 1589 1588 1587 1587 1586 1584 1583 1581 1579 1579 1579 1579 1577 1576 1574 1571 1573 1575 1574 1575 1575 1575 1576 1575 1575 1571 1563 1560 1559 1556 1553 1546 1540 1536 1533 1533 1530 1523 1518 1519 1524 1529 1528 1528 1525 1518 1509 1500 1490 1482 1473 1465 1462 1458 1455 1453 1451 1449 1449 1447 1445 1444 1443 1442 1440 1437 1435
1559 1566 1571 1571 1571 1572 1575 1577 1578 1579 1581 1582 1586 1592 1592 1590 1591 1591 1590 1590 1589 1589 1589 1587 1587 1586 1585 1584 1583 1580 1577 1578 1580 1579 1579 1577 1574 1575 1575 1575 1575 1575 1575 1575 1575 1575 1570 1562 1558 1558 1555 1551 1545 1539 1536 1536 1536 1531 1524 1518 1515 1518 1525 1529 1526 1516 1509 1511 1500 1480 1475 1474 1466 1460 1458 1454 1452 1450 1448 1447 1445 1442 1441 1440 1438 1436 1434 1433
1563 1571 1574 1573 1576 1580 1581 1581 1583 1583 1583 1585 1590 1594 1593 1591 1592 1592 1591 1591 1590 1590 1589 1587 1586 1587 1588 1588 1586 1583 1579 1577 1577 1579 1580 1580 1578 1577 1574 1574 1576 1574 1575 1575 1575 1575 1572 1563 1559 1560 1556 1551 1546 1541 1536 1535 1532 1525 1521 1518 1512 1512 1516 1519 1516 1508 1507 1510 1496 1477 1474 1472 1464 1460 1456 1451 1450 1448 1446 1446 1443 1440 1440 1438 1435 1433 1432 1430
1565 1571 1575 1575 1579 1584 1586 1585 1585 1585 1586 1587 1591 1595 1595 1593 1594 1594 1594 1592 1590 1590 1589 1587 1587 1588 1589 1590 1588 1585 1583 1582 1582 1582 1583 1583 1582 1579 1575 1574 1574 1574 1575 1575 1574 1576 1572 1561 1559 1563 1556 1546 1541 1537 1533 1530 1527 1521 1516 1513 1510 1507 1505 1505 1504 1501 1502 1500 1488 1479 1478 1470 1460 1458 1454 1449 1448 1445 1444 1444 1441 1439 1437 1435 1433 1432 1430 1428
1564 1569 1573 1576 1580 1585 1587 1587 1586 1586 1588 1588 1591 1596 1597 1595 1595 1595 1595 1594 1591 1590 1591 1590 1589 1589 1590 1591 1590 1587 1587 1588 1588 1586 1586 1585 1583 1580 1577 1574 1574 1575 1575 1574 1575 1576 1571 1561 1559 1562 1554 1538 1529 1527 1524 1524 1523 1518 1511 1506 1505 1502 1496 1494 1494 1494 1495 1492 1483 1479 1477 1466 1456 1453 1449 1446 1444 1443 1442 1441 1438 1437 1435 1433 1431 1429 1427 1426
1565 1568 1571 1572 1580 1588 1588 1588 1588 1587 1590 1592 1593 1596 1597 1595 1596 1596 1595 1595 1594 1593 1593 1593 1592 1591 1590 1590 1590 1588 1588 1589 1589 1587 1586 1586 1583 1580 1579 1576 1576 1576 1574 1574 1575 1575 1572 1564 1558 1559 1555 1537 1523 1521 1519 1518 1516 1512 1507 1504 1501 1498 1493 1488 1487 1488 1487 1484 1478 1475 1471 1460 1450 1447 1445 1442 1441 1441 1440 1438 1436 1435 1433 1431 1428 1426 1425 1423
1568 1571 1572 1570 1579 1591 1591 1589 1590 1589 1593 1597 1596 1597 1597 1595 1597 1597 1594 1594 1595 1595 1595 1595 1595 1593 1589 1588 1589 1588 1588 1588 1586 1584 1583 1582 1580 1579 1578 1576 1577 1578 1576 1575 1576 1574 1574 1569 1560 1560 1558 1539 1524 1523 1521 1517 1511 1503 1499 1500 1497 1494 1490 1484 1480 1479 1478 1476 1474 1470 1462 1452 1445 1444 1443 1440 1438 1438 1437 1435 1434 1432 1430 1428 1425 1424 1422 1420